Meteopurmerend
purmerend
Purmerend - Baaienwijk



My webcam  My webcam


Onweer radar Meer informatie blitzortung!


Regen radar Meer informatie rain snow radar


Bezoek onze andere website:

CandyAppleRed WebdesignWebdesign Purmerend Candy Apple Red

MeteopurmerendBlog

Template documentation
and downloads



Het weer levert geen direct gevaar op.    Er zijn geen waarschuwingen afgegeven.

15 daagse weersverwachting Molde (NO)

  • Overzicht
  • Per uur
  • 15 dagen
  • Extra
  • Vergelijk
  • Kaarten
  • Dagkaart
  • Meer »
  • Info
  • Statistieken
  • Directe link
    Temp 6h Neerslag Wind  
 06:58     19:56    Daglengte: 12:58 Vandaag
20:00
11°
11.9 mm
10
 07:01     19:52    Daglengte: 12:51 Morgen
02:00
10°
26.5 mm
12
08:00
27.6 mm
9
14:00
10°
30.4 mm
7
20:00
21.0 mm
6
 07:04     19:49    Daglengte: 12:45 Dinsdag 17 Sep
02:00
40.9 mm
5
08:00
24.5 mm
5
14:00
20.7 mm
6
20:00
10°
42.3 mm
5
 07:06     19:46    Daglengte: 12:40 Woensdag 18 Sep
02:00
42.0 mm
4
08:00
58.3 mm
5
14:00
10°
94.3 mm
4
Locatie info
Region: Møre og Romsdal
Latitude: 62.7375°N
Longitude: 7.1591°E
3 masl
Temp/Neerslag /Baro Onweer/Dauwpunt
    Temp Baro 1h Neerslag Dauwpunt Wind UV Bewolking  
 06:58     19:56    Daglengte: 12:58 Vandaag
19:00
11°
995.1 hPa 8.7 mm
49%
8.2°
10
Windvlaag: 12.4 m/s
89%
20:00
11°
996.2 hPa 3.1 mm
82%
7.9°
10
Windvlaag: 10.4 m/s
80%
21:00
11°
997.3 hPa 3.3 mm
82%
8.0°
11
Windvlaag: 12.6 m/s
91%
22:00
10°
998.6 hPa 4.1 mm
82%
7.6°
13
Windvlaag: 14.6 m/s
91%
23:00
10°
999.8 hPa 5.4 mm
82%
8.0°
13
Windvlaag: 15.1 m/s
91%
 07:01     19:52    Daglengte: 12:51 Morgen
00:00
10°
1001.1 hPa 5.3 mm
82%
7.9°
12
Windvlaag: 15.1 m/s
91%
01:00
10°
Voelt als: 5.8°
1002.0 hPa 4.6 mm
82%
7.6°
12
Windvlaag: 14.6 m/s
90%
02:00
10°
1003.0 hPa 3.8 mm
82%
6.7°
12
Windvlaag: 13.2 m/s
85%
03:00
10°
Voelt als: 5.7°
1003.4 hPa 3.7 mm
82%
6.6°
12
Windvlaag: 13.5 m/s
84%
04:00
10°
Voelt als: 5.5°
1004.1 hPa 4.0 mm
82%
6.8°
11
Windvlaag: 13.2 m/s
81%
05:00
Voelt als: 5.4°
1004.9 hPa 3.8 mm
82%
5.6°
11
Windvlaag: 12.5 m/s
85%
06:00
Voelt als: 5.3°
1005.4 hPa 5.8 mm
82%
4.9°
10
Windvlaag: 12.2 m/s
79%
07:00
Voelt als: 5.2°
1005.9 hPa 5.9 mm
82%
4.7°
9
Windvlaag: 10.8 m/s
84%
08:00
Voelt als: 4.6°
1006.3 hPa 4.4 mm
82%
5.5°
9
Windvlaag: 12.3 m/s
85%
09:00
Voelt als: 5.1°
1006.7 hPa 4.2 mm
82%
4.5°
9
Windvlaag: 11.3 m/s
56%
10:00
Voelt als: 5.4°
1007.0 hPa 6.0 mm
81%
4.1°
9
Windvlaag: 10.4 m/s
59%
11:00
10°
Voelt als: 6.0°
1006.9 hPa 5.5 mm
69%
3.6°
9
Windvlaag: 9.4 m/s
42%
12:00
10°
Voelt als: 6.3°
1006.8 hPa 5.5 mm
65%
4.1°
8
Windvlaag: 9.4 m/s
67%
13:00
10°
Voelt als: 6.8°
1006.4 hPa 3.9 mm
65%
5.1°
7
Windvlaag: 8.6 m/s
67%
14:00
10°
1005.9 hPa 5.5 mm
75%
5.7°
7
Windvlaag: 8.4 m/s
61%
15:00
10°
1005.4 hPa
77%
6.4°
5
Windvlaag: 7.6 m/s
61%
16:00
10°
1005.1 hPa 5.6 mm
82%
6.7°
6
Windvlaag: 7.5 m/s
77%
17:00
Voelt als: 6.0°
1004.8 hPa 5.2 mm
82%
6.5°
6
Windvlaag: 9.8 m/s
84%
18:00
Voelt als: 6.2°
1004.8 hPa 5.0 mm
82%
6.8°
7
Windvlaag: 7.9 m/s
83%
19:00
Voelt als: 5.9°
1004.8 hPa 5.2 mm
82%
6.4°
7
Windvlaag: 6.8 m/s
75%
20:00
Voelt als: 6.1°
1004.9 hPa
81%
5.9°
6
Windvlaag: 7 m/s
64%
21:00
Voelt als: 5.0°
1004.9 hPa 6.9 mm
78%
5.6°
6
Windvlaag: 10.5 m/s
65%
22:00
Voelt als: 4.9°
1004.8 hPa 6.9 mm
73%
5.4°
5
Windvlaag: 6.5 m/s
78%
23:00
Voelt als: 4.4°
1004.6 hPa 6.8 mm
78%
5.7°
6
Windvlaag: 7.5 m/s
68%
 07:04     19:49    Daglengte: 12:45 Dinsdag 17 Sep
00:00
Voelt als: 4.0°
1004.5 hPa 6.6 mm
80%
5.3°
6
Windvlaag: 8 m/s
75%
01:00
Voelt als: 3.5°
1004.5 hPa 6.9 mm
79%
5.3°
7
Windvlaag: 9.4 m/s
71%
02:00
Voelt als: 4.2°
1004.7 hPa 6.8 mm
79%
5.3°
5
Windvlaag: 8.5 m/s
60%
03:00
Voelt als: 3.8°
1004.5 hPa 6.5 mm
75%
4.8°
6
Windvlaag: 7.2 m/s
54%
04:00
Voelt als: 4.0°
1004.4 hPa 6.6 mm
69%
4.7°
5
Windvlaag: 5.3 m/s
62%
05:00
Voelt als: 4.2°
1004.4 hPa 4.8 mm
66%
4.6°
5
Windvlaag: 6.1 m/s
43%
06:00
Voelt als: 3.7°
1004.5 hPa 6.6 mm
69%
4.5°
6
Windvlaag: 6.7 m/s
64%
07:00
Voelt als: 3.9°
1004.9 hPa
77%
4.5°
5
Windvlaag: 6.1 m/s
68%
08:00
Voelt als: 4.3°
1005.4 hPa
82%
4.5°
5
Windvlaag: 7 m/s
69%
09:00
Voelt als: 4.5°
1005.9 hPa
73%
4.4°
5
Windvlaag: 7.4 m/s
36%
10:00
Voelt als: 4.6°
1006.5 hPa
18%
4.9°
6
Windvlaag: 8.1 m/s
60%
11:00
Voelt als: 5.0°
1007.2 hPa
69%
5.2°
7
Windvlaag: 8.8 m/s
75%
12:00
Voelt als: 5.5°
1008.1 hPa 5.3 mm
77%
5.8°
6
Windvlaag: 7.9 m/s
84%
13:00
Voelt als: 5.6°
1008.9 hPa 7.5 mm
82%
5.5°
6
Windvlaag: 7.1 m/s
77%
14:00
Voelt als: 5.9°
1009.7 hPa 7.9 mm
82%
5.5°
6
Windvlaag: 4.8 m/s
80%
15:00
Voelt als: 6.4°
1010.3 hPa 8.5 mm
82%
5.5°
6
Windvlaag: 4.5 m/s
77%
16:00
10°
Voelt als: 6.8°
1010.7 hPa 8.4 mm
82%
6.0°
6
Windvlaag: 5 m/s
87%
17:00
10°
Voelt als: 7.1°
1010.5 hPa 6.9 mm
100%
7.4°
5
Windvlaag: 4.9 m/s
99%
18:00
10°
1011.3 hPa 5.8 mm
100%
7.5°
4
Windvlaag: 3.9 m/s
94%
19:00
10°
Voelt als: 7.7°
1011.7 hPa 6.7 mm
100%
7.2°
4
Windvlaag: 4.5 m/s
96%
20:00
10°
Voelt als: 7.5°
1012.4 hPa 5.9 mm
100%
6.6°
5
Windvlaag: 5 m/s
89%
21:00
10°
Voelt als: 7.7°
1013.3 hPa 8.2 mm
100%
6.1°
3
Windvlaag: 4.4 m/s
95%
22:00
Voelt als: 7.5°
1014.0 hPa 8.0 mm
100%
5.3°
3
Windvlaag: 2.5 m/s
76%
23:00
Voelt als: 6.8°
1014.6 hPa
100%
5.4°
3
Windvlaag: 2.2 m/s
89%
 07:06     19:46    Daglengte: 12:40 Woensdag 18 Sep
00:00
Voelt als: 6.9°
1014.8 hPa 10.7 mm
100%
6.0°
3
Windvlaag: 2.5 m/s
88%
01:00
Voelt als: 6.6°
1015.2 hPa 7.8 mm
100%
6.4°
4
Windvlaag: 3.5 m/s
94%
02:00
Voelt als: 6.7°
1015.7 hPa 7.3 mm
100%
6.6°
4
Windvlaag: 3.9 m/s
78%
03:00
Voelt als: 6.7°
1016.2 hPa 10.5 mm
100%
5.8°
3
Windvlaag: 3.9 m/s
89%
04:00
Voelt als: 6.5°
1016.6 hPa 10.5 mm
100%
5.0°
4
Windvlaag: 3.8 m/s
51%
05:00
Voelt als: 6.4°
1016.9 hPa 10.9 mm
100%
5.3°
4
Windvlaag: 4.6 m/s
91%
06:00
Voelt als: 6.1°
1017.2 hPa 7.9 mm
100%
6.5°
4
Windvlaag: 3.7 m/s
70%
07:00
Voelt als: 5.9°
1017.4 hPa 7.7 mm
100%
6.5°
4
Windvlaag: 3.9 m/s
73%
08:00
Voelt als: 5.7°
1017.9 hPa 10.8 mm
100%
5.8°
5
Windvlaag: 5.2 m/s
48%
09:00
Voelt als: 6.1°
1018.4 hPa 16.6 mm
100%
6.0°
5
Windvlaag: -2.3 m/s
45%
10:00
Voelt als: 6.5°
1018.9 hPa 16.7 mm
100%
6.2°
5
Windvlaag: -1.3 m/s
27%
11:00
Voelt als: 6.7°
1019.4 hPa 16.8 mm
100%
6.4°
5
Windvlaag: -1.2 m/s
78%
12:00
Voelt als: 7.1°
1019.9 hPa 10.3 mm
100%
6.5°
5
Windvlaag: -0.8 m/s
83%
13:00
10°
Voelt als: 7.4°
1020.3 hPa 16.9 mm
100%
6.8°
4
Windvlaag: -1.1 m/s
67%
14:00
10°
Voelt als: 7.8°
1020.8 hPa 16.9 mm
100%
7.1°
4
Windvlaag: -0.5 m/s
75%
15:00
10°
Voelt als: 7.6°
1020.9 hPa 16.9 mm
100%
6.9°
4
Windvlaag: 7.3 m/s
72%
16:00
Voelt als: 7.4°
1021.2 hPa 17.0 mm
100%
6.9°
4
Windvlaag: 7.3 m/s
78%
17:00
Voelt als: 7.1°
1021.4 hPa 17.0 mm
100%
6.7°
4
Windvlaag: 7.5 m/s
78%
18:00
Voelt als: 6.9°
1021.7 hPa 17.0 mm
100%
6.7°
3
Windvlaag: 8.3 m/s
80%
Temp/Neerslag /Baro Onweer/Dauwpunt
    Temp Baro Neerslag Dauwpunt Wind Bewolking  
 06:58     19:56    Daglengte: 12:58 Vandaag
20:00
11°
996.2 hPa 11.9 mm 7.9°
10
80%
23:00
10°
999.8 hPa 12.8 mm 8.0°
13
91%
 07:01     19:52    Daglengte: 12:51 Morgen
02:00
10°
1003.0 hPa 13.7 mm 6.7°
12
85%
05:00
Voelt als: 5.4°
1004.9 hPa 11.5 mm 5.6°
11
85%
08:00
Voelt als: 4.6°
1006.3 hPa 16.0 mm 5.5°
9
85%
11:00
10°
Voelt als: 6.0°
1006.9 hPa 15.6 mm 3.6°
9
42%
14:00
10°
1005.9 hPa 14.9 mm 5.7°
7
61%
17:00
Voelt als: 6.0°
1004.8 hPa 10.9 mm 6.5°
6
84%
20:00
Voelt als: 6.1°
1004.9 hPa 10.2 mm 5.9°
6
64%
23:00
Voelt als: 4.4°
1004.6 hPa 20.7 mm 5.7°
6
68%
 07:04     19:49    Daglengte: 12:45 Dinsdag 17 Sep
02:00
Voelt als: 4.2°
1004.7 hPa 20.3 mm 5.3°
5
60%
05:00
Voelt als: 4.2°
1004.4 hPa 17.9 mm 4.6°
5
43%
08:00
Voelt als: 4.3°
1005.4 hPa 6.6 mm 4.5°
5
69%
11:00
Voelt als: 5.0°
1007.2 hPa   5.2°
7
75%
14:00
Voelt als: 5.9°
1009.7 hPa 20.7 mm 5.5°
6
80%
17:00
10°
Voelt als: 7.1°
1010.5 hPa 23.8 mm 7.4°
5
99%
20:00
10°
Voelt als: 7.5°
1012.4 hPa 18.5 mm 6.6°
5
89%
23:00
Voelt als: 6.8°
1014.6 hPa 16.2 mm 5.4°
3
89%
 07:06     19:46    Daglengte: 12:40 Woensdag 18 Sep
02:00
Voelt als: 6.7°
1015.7 hPa 25.8 mm 6.6°
4
78%
05:00
Voelt als: 6.4°
1016.9 hPa 31.9 mm 5.3°
4
91%
08:00
Voelt als: 5.7°
1017.9 hPa 26.4 mm 5.8°
5
48%
11:00
Voelt als: 6.7°
1019.4 hPa 50.2 mm 6.4°
5
78%
14:00
10°
Voelt als: 7.8°
1020.8 hPa 44.1 mm 7.1°
4
75%
17:00
Voelt als: 7.1°
1021.4 hPa 50.9 mm 6.7°
4
78%
20:00
Voelt als: 6.5°
1022.3 hPa 51.1 mm 6.5°
3
80%
23:00
Voelt als: 6.0°
1023.0 hPa 77.9 mm 6.0°
3
82%
 07:09     19:42    Daglengte: 12:33 Donderdag 19 Sep
02:00
Voelt als: 5.6°
1023.5 hPa 79.7 mm 5.7°
3
85%
05:00
Voelt als: 5.6°
1024.2 hPa 80.3 mm 5.4°
2
89%
08:00
Voelt als: 5.8°
1024.9 hPa 80.6 mm 5.1°
2
92%
11:00
Voelt als: 6.7°
1024.9 hPa 81.0 mm 5.7°
3
92%
14:00
Voelt als: 7.7°
1024.9 hPa 81.3 mm 6.3°
3
92%
17:00
Voelt als: 6.9°
1024.1 hPa 81.5 mm 5.9°
3
92%
20:00
Voelt als: 5.9°
1023.3 hPa 81.6 mm 5.5°
3
92%
23:00
Voelt als: 5.1°
1022.1 hPa 81.6 mm 5.4°
4
92%
 07:12     19:39    Daglengte: 12:27 Vrijdag 20 Sep
02:00
Voelt als: 4.5°
1020.8 hPa 81.6 mm 5.2°
4
92%
05:00
Voelt als: 5.5°
1019.2 hPa 81.6 mm 6.3°
5
92%
08:00
Voelt als: 6.6°
1017.5 hPa 81.6 mm 7.5°
5
92%
11:00
10°
1017.4 hPa 81.7 mm 8.5°
6
92%
14:00
11°
1017.3 hPa 81.8 mm 9.5°
6
92%
17:00
11°
1016.9 hPa 81.8 mm 9.7°
6
92%
20:00
11°
1016.5 hPa 81.8 mm 9.7°
6
92%
23:00
11°
1016.6 hPa 81.8 mm 8.6°
5
92%
 07:14     19:36    Daglengte: 12:22 Zaterdag 21 Sep
02:00
10°
1016.7 hPa 81.8 mm 7.5°
3
92%
05:00
Voelt als: 7.8°
1016.2 hPa 81.8 mm 7.0°
3
92%
08:00
Voelt als: 7.1°
1015.6 hPa 81.8 mm 6.5°
3
92%
11:00
13°
1014.3 hPa 81.8 mm 9.0°
3
92%
14:00
17°
1013.0 hPa 81.8 mm 11.2°
2
92%
17:00
15°
1012.7 hPa 81.8 mm 11.2°
2
92%
20:00
13°
1012.4 hPa 81.8 mm 10.8°
2
91%
23:00
11°
1012.2 hPa 81.8 mm 8.8°
2
88%
 07:17     19:32    Daglengte: 12:15 Zondag 22 Sep
02:00
Voelt als: 7.6°
1012.0 hPa 81.8 mm 6.9°
2
85%
05:00
Voelt als: 7.4°
1011.2 hPa 81.8 mm 6.7°
2
86%
08:00
Voelt als: 7.1°
1010.3 hPa 81.8 mm 6.6°
2
87%
11:00
12°
1009.4 hPa 81.8 mm 8.5°
2
82%
14:00
16°
1008.4 hPa 81.8 mm 10.0°
2
76%
17:00
15°
1008.1 hPa   10.6°
2
81%
20:00
13°
1007.8 hPa 163.6 mm 11.1°
2
87%
 07:20     19:29    Daglengte: 12:09 Maandag 23 Sep
02:00
10°
Voelt als: 8.7°
1007.1 hPa 163.6 mm 8.2°
2
70%
08:00
10°
Voelt als: 8.6°
1008.2 hPa 163.6 mm 7.9°
2
86%
14:00
16°
1009.5 hPa 163.6 mm 11.0°
2
85%
20:00
12°
1001.9 hPa 163.7 mm 10.6°
5
78%
 07:22     19:25    Daglengte: 12:03 Dinsdag 24 Sep
02:00
10°
1008.8 hPa 164.7 mm 8.9°
2
85%
08:00
Voelt als: 8.0°
1007.8 hPa 164.9 mm 8.1°
3
90%
14:00
14°
1007.0 hPa 164.9 mm 10.7°
3
90%
20:00
11°
1001.4 hPa 165.0 mm 10.0°
4
92%
 07:25     19:22    Daglengte: 11:57 Woensdag 25 Sep
02:00
10°
1010.4 hPa 165.0 mm 6.5°
2
0%
08:00
10°
1006.5 hPa 165.0 mm 6.1°
3
1%
14:00
14°
1003.3 hPa 1.3 mm 8.4°
3
68%
20:00
11°
1003.9 hPa 1.3 mm 8.3°
2
60%
 07:28     19:19    Daglengte: 11:51 Donderdag 26 Sep
02:00
10°
1004.6 hPa 0.8 mm 7.6°
3
55%
08:00
10°
Voelt als: 8.4°
1004.3 hPa 0.6 mm 7.5°
3
67%
14:00
13°
1004.2 hPa 0.7 mm 7.9°
3
66%
20:00
11°
1004.2 hPa 1.0 mm 8.1°
1
56%
 07:30     19:15    Daglengte: 11:45 Vrijdag 27 Sep
02:00
10°
Voelt als: 9.4°
1004.3 hPa 2.2 mm 7.4°
1
58%
08:00
Voelt als: 7.9°
1004.2 hPa 0.9 mm 6.6°
2
56%
14:00
13°
1004.8 hPa 0.9 mm 6.9°
2
51%
20:00
10°
1005.6 hPa 0.4 mm 6.8°
1
49%
 07:33     19:12    Daglengte: 11:39 Zaterdag 28 Sep
02:00
Voelt als: 8.3°
1006.0 hPa 0.3 mm 6.6°
2
56%
08:00
Voelt als: 7.7°
1005.3 hPa 0.5 mm 6.3°
2
57%
14:00
13°
1005.5 hPa 1.1 mm 7.0°
2
58%
20:00
10°
1006.3 hPa 1.1 mm 7.2°
1
58%
 07:36     19:09    Daglengte: 11:33 Zondag 29 Sep
02:00
Voelt als: 9.0°
1006.5 hPa 0.5 mm 6.8°
1
57%
08:00
Voelt als: 8.2°
1005.7 hPa 1.5 mm 6.6°
1
59%
14:00
12°
1005.8 hPa 2.2 mm 6.8°
1
64%
20:00
10°
1006.1 hPa 1.6 mm 6.7°
0
63%
 07:39     19:05    Daglengte: 11:26 Maandag 30 Sep
02:00
Voelt als: 8.5°
1006.6 hPa 1.8 mm 6.5°
1
64%
08:00
Voelt als: 7.7°
1006.7 hPa 1.8 mm 6.0°
1
62%
14:00
11°
1008.3 hPa 1.4 mm 6.2°
2
61%
  CAPE Lifted Index Hail Supercell Tornado SRH 3km CL BTM PRES CL TOP PRES Swiss DWD icon SMHI TS
 06:58     19:56    Daglengte: 12:58 Vandaag
19:00 349 J/kg -0.6 K 0 % 0 % 0 % 0 m²/s² 0 0 0.69 80
20:00 267 J/kg -0.1 K 0 % 0 % 0 % 0 m²/s² 0 0 0.35 80
21:00 343 J/kg -0.7 K 0 % 0 % 0 % 0 m²/s² 0 0 -0.04 80
22:00 210 J/kg 0.4 K 0 % 0 % 0 % 0 m²/s² 0 0 0.64 61
23:00 176 J/kg 0.9 K 0 % 0 % 0 % 0 m²/s² 0 0 1.23 63
 07:01     19:52    Daglengte: 12:51 Morgen
00:00 160 J/kg 1.1 K 0 % 0 % 0 % 0 m²/s² 0 0 1.46 61
01:00 201 J/kg 1.2 K 0 % 0 % 0 % 0 m²/s² 0 0 1.59 61
02:00 204 J/kg 1.5 K 0 % 0 % 0 % 0 m²/s² 0 0 3.9 80
03:00 189 J/kg 2.0 K 0 % 0 % 0 % 0 m²/s² 0 0 6.5 80
04:00 188 J/kg 2.4 K 0 % 0 % 0 % 0 m²/s² 0 0 5.64 80
05:00 193 J/kg 2.3 K 0 % 0 % 0 % 0 m²/s² 0 0 5.69 80
06:00 243 J/kg 1.9 K 0 % 0 % 0 % 0 m²/s² 0 0 3.52 80
07:00 192 J/kg 2.0 K 0 % 0 % 0 % 0 m²/s² 0 0 2.99 80
08:00 163 J/kg 1.8 K 0 % 0 % 0 % 0 m²/s² 0 0 2.73 80
09:00 131 J/kg 2.3 K 0 % 0 % 0 % 0 m²/s² 0 0 5.42 80
10:00 98 J/kg 2.8 K 0 % 0 % 0 % 0 m²/s² 0 0 8.5 80
11:00 51 J/kg 3.2 K 0 % 0 % 0 % 0 m²/s² 0 0 9.08 2
12:00 65 J/kg 2.7 K 0 % 0 % 0 % 0 m²/s² 0 0 7.41 3
13:00 42 J/kg 2.4 K 0 % 0 % 0 % 0 m²/s² 0 0 6.15 3
14:00 29 J/kg 2.2 K 0 % 0 % 0 % 0 m²/s² 0 0 5.32 3
15:00 93 J/kg 0.8 K 0 % 0 % 0 % 0 m²/s² 0 0 3.26 3
16:00 239 J/kg -0.2 K 0 % 0 % 0 % 0 m²/s² 0 0 0.64 61
17:00 1 J/kg 1.3 K 0 % 0 % 0 % 0 m²/s² 0 0 1.93 80
18:00 112 J/kg 0.1 K 0 % 0 % 0 % 0 m²/s² 0 0 0.85 80
19:00 323 J/kg -1.5 K 0 % 0 % 0 % 0 m²/s² 0 0 -0.9 80
20:00 352 J/kg -1.2 K 0 % 0 % 0 % 0 m²/s² 0 0 -0.69 80
21:00 390 J/kg -1.2 K 0 % 0 % 0 % 0 m²/s² 0 0 0.42 80
22:00 268 J/kg -0.5 K 0 % 0 % 0 % 0 m²/s² 0 0 1.72 80
23:00 144 J/kg 0.0 K 0 % 0 % 0 % 0 m²/s² 0 0 2.7 80
 07:04     19:49    Daglengte: 12:45 Dinsdag 17 Sep
00:00 154 J/kg -0.2 K 0 % 0 % 0 % 0 m²/s² 0 0 1.63 80
01:00 139 J/kg 0.3 K 0 % 0 % 0 % 0 m²/s² 0 0 1.8 80
02:00 117 J/kg 0.6 K 0 % 0 % 0 % 0 m²/s² 0 0 2.88 80
03:00 165 J/kg 0.5 K 0 % 0 % 0 % 0 m²/s² 0 0 2.84 2
04:00 140 J/kg 0.7 K 0 % 0 % 0 % 0 m²/s² 0 0 2.56 2
05:00 127 J/kg 0.3 K 0 % 0 % 0 % 0 m²/s² 0 0 2.88 2
06:00 159 J/kg 0.2 K 0 % 0 % 0 % 0 m²/s² 0 0 2.42 3
07:00 161 J/kg -0.4 K 0 % 0 % 0 % 0 m²/s² 0 0 0.35 3
08:00 153 J/kg -0.1 K 0 % 0 % 0 % 0 m²/s² 0 0 0.62 3
09:00 116 J/kg 0.5 K 0 % 0 % 0 % 0 m²/s² 0 0 1.97 2
10:00 109 J/kg 1.0 K 0 % 0 % 0 % 0 m²/s² 0 0 2.41 3
11:00 102 J/kg 1.4 K 0 % 0 % 0 % 0 m²/s² 0 0 3.59 3
12:00 79 J/kg 2.0 K 0 % 0 % 0 % 0 m²/s² 0 0 4.82 61
13:00 77 J/kg 2.1 K 0 % 0 % 0 % 0 m²/s² 0 0 5.31 61
14:00 79 J/kg 2.1 K 0 % 0 % 0 % 0 m²/s² 0 0 5.76 61
15:00 116 J/kg 1.5 K 0 % 0 % 0 % 0 m²/s² 0 0 5.46 61
16:00 149 J/kg 0.8 K 0 % 0 % 0 % 0 m²/s² 0 0 4.25 61
17:00 172 J/kg 0.3 K 0 % 0 % 0 % 0 m²/s² 0 0 3.33 61
18:00 216 J/kg 0.1 K 0 % 0 % 0 % 0 m²/s² 0 0 3.19 61
19:00 173 J/kg 0.9 K 0 % 0 % 0 % 0 m²/s² 0 0 1.83 3
20:00 174 J/kg 1.0 K 0 % 0 % 0 % 0 m²/s² 0 0 4.36 3
21:00 196 J/kg 1.0 K 0 % 0 % 0 % 0 m²/s² 0 0 3.34 3
22:00 71 J/kg 2.3 K 0 % 0 % 0 % 0 m²/s² 0 0 3.86 3
23:00 14 J/kg 1.8 K 0 % 0 % 0 % 0 m²/s² 0 0 2.07 61
 07:06     19:46    Daglengte: 12:40 Woensdag 18 Sep
00:00 190 J/kg 1.1 K 0 % 0 % 0 % 0 m²/s² 0 0 1.82 61
01:00 247 J/kg 1.8 K 0 % 0 % 0 % 0 m²/s² 0 0 3.21 61
02:00 296 J/kg 1.3 K 0 % 0 % 0 % 0 m²/s² 0 0 2.65 80
03:00 268 J/kg 1.4 K 0 % 0 % 0 % 0 m²/s² 0 0 3.2 3
04:00 229 J/kg 1.7 K 0 % 0 % 0 % 0 m²/s² 0 0 4.28 3
05:00 122 J/kg 1.9 K 0 % 0 % 0 % 0 m²/s² 0 0 2.29 80
06:00 123 J/kg 1.2 K 0 % 0 % 0 % 0 m²/s² 0 0 2.28 80
07:00 192 J/kg 0.9 K 0 % 0 % 0 % 0 m²/s² 0 0 2.43 80
08:00 233 J/kg 0.5 K 0 % 0 % 0 % 0 m²/s² 0 0 1.76 80
09:00 197 J/kg 0.9 K 0 % 0 % 0 % 0 m²/s² 0 0 2.22 80
10:00 143 J/kg 1.9 K 0 % 0 % 0 % 0 m²/s² 0 0 2.92 80
11:00 160 J/kg 2.3 K 0 % 0 % 0 % 0 m²/s² 0 0 3.56 80
12:00 167 J/kg 2.4 K 0 % 0 % 0 % 0 m²/s² 0 0 3.9 80
13:00 193 J/kg 2.3 K 0 % 0 % 0 % 0 m²/s² 0 0 4.13 80
14:00 197 J/kg 2.3 K 0 % 0 % 0 % 0 m²/s² 0 0 3.89 80
15:00 203 J/kg 1.9 K 0 % 0 % 0 % 0 m²/s² 0 0 3.55 80
16:00 238 J/kg 1.1 K 0 % 0 % 0 % 0 m²/s² 0 0 2.87 80
17:00 223 J/kg 0.9 K 0 % 0 % 0 % 0 m²/s² 0 0 2.49 80
18:00 314 J/kg 0.2 K 0 % 0 % 0 % 0 m²/s² 0 0 1.34 80
Temp Baro Wind Neerslag
  EWN Forecast EWN WRFDA DWD ICON FMI HIRLAM MET Norway GFS
 06:58     19:56    Daglengte: 12:58 Vandaag
20:00 10.7° 996.2 hPa 10.4 m/s 11.9 mm 10.8° 993.7 hPa 11.9 m/s 30.2 mm 9.3° 996.6 hPa 10.4 m/s 8.7 mm 11.5° 996.2 hPa 10.2 m/s 0.0 mm 10.5° 996.1 hPa 7.5 m/s 0.3 mm 10.8° 995.8 hPa 12.4 m/s
23:00 10.2° 999.8 hPa 12.8 m/s 12.8 mm 10.5° 997.6 hPa 12.5 m/s 50.8 mm 8.8° 999.9 hPa 11.5 m/s 6.3 mm 11.0° 999.6 hPa 13.7 m/s 0.0 mm 9.7° 999.9 hPa 12.4 m/s 4.3 mm 10.5° 1000.1 hPa 13.2 m/s
 07:01     19:52    Daglengte: 12:51 Morgen
02:00 10.0° 1003.0 hPa 11.7 m/s 13.7 mm 10.1° 1000.7 hPa 11.6 m/s 58.6 mm 8.4° 1003.4 hPa 10.5 m/s 5.2 mm 10.5° 1002.7 hPa 12.9 m/s 0.0 mm 9.9° 1003.0 hPa 10.9 m/s 8.0 mm 9.7° 1003.1 hPa 12.4 m/s
05:00 9.5° 1004.9 hPa 10.6 m/s 11.5 mm 9.6° 1002.7 hPa 10.1 m/s 64.7 mm 7.8° 1005.9 hPa 9.8 m/s 3.5 mm 10.0° 1004.8 hPa 11.0 m/s 0.0 mm 9.4° 1004.8 hPa 10.3 m/s 1.9 mm 9.0° 1005.3 hPa 11.0 m/s
08:00 8.7° 1006.3 hPa 9.3 m/s 16.0 mm 9.0° 1003.0 hPa 10.1 m/s 72.6 mm 7.3° 1007.3 hPa 8.7 m/s 3.7 mm 9.3° 1006.4 hPa 8.9 m/s 0.0 mm 8.3° 1006.1 hPa 8.8 m/s 0.6 mm 8.1° 1006.3 hPa 10.3 m/s
11:00 9.6° 1006.9 hPa 8.5 m/s 15.6 mm 10.0° 1003.6 hPa 8.3 m/s 79.2 mm 8.4° 1007.5 hPa 9.7 m/s 1.7 mm 9.9° 1007.7 hPa 8.3 m/s 0.0 mm 9.4° 1006.5 hPa 7.7 m/s 0.0 mm 8.8° 1006.8 hPa 8.0 m/s
14:00 10.1° 1005.9 hPa 6.6 m/s 14.9 mm 11.0° 1003.5 hPa 6.4 m/s 79.2 mm 9.4° 1006.7 hPa 6.4 m/s 0.6 mm 10.9° 1007.3 hPa 5.7 m/s 0.0 mm 8.9° 1005.7 hPa 6.8 m/s 0.0 mm 8.2° 1006.7 hPa 5.1 m/s
17:00 9.0° 1004.8 hPa 6.1 m/s 10.9 mm 8.9° 1002.5 hPa 4.1 m/s 80.7 mm 8.3° 1005.4 hPa 5.5 m/s 1.3 mm 10.9° 1005.9 hPa 7.2 m/s 0.0 mm 8.6° 1004.8 hPa 5.9 m/s 0.9 mm 7.6° 1005.8 hPa 5.1 m/s
20:00 9.2° 1004.9 hPa 6.4 m/s 10.2 mm 9.7° 1001.5 hPa 7.5 m/s 87.9 mm 7.5° 1005.0 hPa 5.9 m/s 2.3 mm 9.6° 1006.6 hPa 6.2 m/s 0.0 mm 9.0° 1004.3 hPa 5.1 m/s 1.7 mm 8.1° 1005.6 hPa 7.1 m/s
23:00 7.7° 1004.6 hPa 5.8 m/s 20.7 mm 8.4° 1002.5 hPa 2.9 m/s 93.7 mm 6.8° 1004.5 hPa 3.2 m/s 2.1 mm 9.0° 1006.7 hPa 5.5 m/s 0.0 mm 6.5° 1004.4 hPa 6.4 m/s 2.8 mm 7.5° 1005.9 hPa 4.7 m/s
 07:04     19:49    Daglengte: 12:45 Dinsdag 17 Sep
02:00 7.4° 1004.7 hPa 5.3 m/s 20.3 mm 8.7° 1002.7 hPa 4.0 m/s 94.0 mm 6.5° 1004.7 hPa 5.1 m/s 1.6 mm 8.8° 1006.9 hPa 7.7 m/s 0.0 mm 5.2° 1004.6 hPa 4.5 m/s 2.1 mm 7.2° 1006.1 hPa 3.7 m/s
05:00 7.3° 1004.4 hPa 5.1 m/s 17.9 mm 8.0° 1002.8 hPa 1.3 m/s 94.9 mm 6.0° 1005.3 hPa 4.9 m/s 0.7 mm 7.9° 1007.2 hPa 6.2 m/s 0.0 mm 6.6° 1003.7 hPa 5.1 m/s 1.3 mm 7.0° 1006.7 hPa 3.9 m/s
08:00 7.3° 1005.4 hPa 4.8 m/s 6.6 mm 8.8° 1004.0 hPa 3.4 m/s 100.8 mm 6.2° 1006.8 hPa 3.8 m/s 0.7 mm 8.0° 1007.1 hPa 6.5 m/s 0.0 mm 6.2° 1004.6 hPa 4.5 m/s 0.3 mm 7.4° 1008.3 hPa 4.9 m/s
11:00 8.4° 1007.2 hPa 6.5 m/s 0.0 mm 10.4° 1007.8 hPa 6.4 m/s 108.4 mm 7.5° 1008.5 hPa 5.1 m/s 0.1 mm 9.1° 1007.6 hPa 5.8 m/s 0.0 mm 7.0° 1005.6 hPa 6.8 m/s 0.5 mm 8.4° 1010.9 hPa 3.1 m/s
14:00 8.9° 1009.7 hPa 6.1 m/s 20.7 mm 10.8° 1010.1 hPa 6.4 m/s 108.4 mm 7.8° 1010.5 hPa 7.0 m/s 0.6 mm 10.0° 1011.2 hPa 6.4 m/s 0.0 mm 8.1° 1007.9 hPa 1.8 m/s 0.0 mm 8.8° 1012.6 hPa 4.7 m/s
17:00 9.7° 1010.5 hPa 5.4 m/s 23.8 mm 10.0° 1011.1 hPa 6.7 m/s 108.9 mm 7.4° 1011.7 hPa 5.1 m/s 3.5 mm 9.9° 1009.6 hPa 3.3 m/s 0.4 mm 8.7° 1013.8 hPa 5.5 m/s
20:00 9.8° 1012.4 hPa 4.5 m/s 18.5 mm 9.4° 1011.6 hPa 7.0 m/s 112.7 mm 7.5° 1014.0 hPa 3.4 m/s 1.7 mm 10.0° 1012.0 hPa 3.8 m/s 1.2 mm 8.4° 1014.6 hPa 4.1 m/s
23:00 8.7° 1014.6 hPa 3.3 m/s 16.2 mm 7.2° 1011.7 hPa 4.4 m/s 118.5 mm 7.5° 1016.4 hPa 2.8 m/s 1.6 mm 8.7° 1014.5 hPa 1.4 m/s 0.0 mm 8.7° 1015.6 hPa 5.4 m/s
 07:06     19:46    Daglengte: 12:40 Woensdag 18 Sep
02:00 8.9° 1015.7 hPa 3.9 m/s 25.8 mm 9.4° 1011.8 hPa 4.1 m/s 141.7 mm 7.8° 1018.6 hPa 3.3 m/s 4.5 mm 8.8° 1015.6 hPa 2.2 m/s 0.3 mm 8.4° 1017.0 hPa 4.7 m/s
05:00 8.5° 1016.9 hPa 3.5 m/s 31.9 mm 8.9° 1013.6 hPa 6.4 m/s 146.2 mm 7.5° 1020.4 hPa 3.4 m/s 0.8 mm 8.2° 1016.6 hPa 2.2 m/s 0.0 mm 8.1° 1018.0 hPa 5.0 m/s
08:00 8.4° 1017.9 hPa 4.8 m/s 26.4 mm 9.2° 1014.9 hPa 5.0 m/s 147.5 mm 7.4° 1021.5 hPa 3.4 m/s 2.0 mm 8.1° 1017.4 hPa 4.6 m/s 2.9 mm 7.8° 1018.9 hPa 1.8 m/s
11:00 9.3° 1019.4 hPa 4.9 m/s 50.2 mm 10.7° 1017.8 hPa 6.0 m/s 147.8 mm 8.1° 1023.1 hPa 4.7 m/s 1.3 mm 9.1° 1018.8 hPa 4.0 m/s 8.7° 1020.8 hPa 2.8 m/s
14:00 9.9° 1020.8 hPa 4.2 m/s 44.1 mm 10.9° 1019.5 hPa 5.7 m/s 148.2 mm 8.1° 1024.1 hPa 3.9 m/s 2.0 mm 10.0° 1020.1 hPa 3.4 m/s 9.1° 1022.0 hPa 2.9 m/s
17:00 9.1° 1021.4 hPa 3.5 m/s 50.9 mm 10.6° 1020.1 hPa 5.7 m/s 149.2 mm 7.9° 1024.5 hPa 3.6 m/s 1.7 mm 9.2° 1021.0 hPa 3.0 m/s 9.1° 1023.0 hPa 3.0 m/s
20:00 8.2° 1022.3 hPa 2.8 m/s 51.1 mm 8.9° 1022.0 hPa 4.4 m/s 150.1 mm 7.3° 1024.5 hPa 2.6 m/s 1.6 mm 8.3° 1021.9 hPa 2.6 m/s 7.9° 1024.9 hPa 2.5 m/s
23:00 7.6° 1023.0 hPa 2.5 m/s 77.9 mm 7.7° 1022.7 hPa 2.7 m/s 7.0° 1026.5 hPa 1.2 m/s 77.9 mm
 07:09     19:42    Daglengte: 12:33 Donderdag 19 Sep
02:00 7.3° 1023.5 hPa 2.6 m/s 79.7 mm 7.4° 1023.1 hPa 2.7 m/s 6.8° 1027.8 hPa 1.3 m/s 79.7 mm
05:00 7.2° 1024.2 hPa 2.3 m/s 80.3 mm 7.3° 1023.8 hPa 2.5 m/s 6.2° 1029.0 hPa 0.6 m/s 80.3 mm
08:00 7.2° 1024.9 hPa 2.2 m/s 80.6 mm 7.2° 1024.4 hPa 2.3 m/s 7.0° 1030.0 hPa 0.8 m/s 80.6 mm
11:00 8.4° 1024.9 hPa 2.8 m/s 81.0 mm 8.3° 1024.3 hPa 2.9 m/s 8.5° 1031.2 hPa 1.2 m/s 81.0 mm
14:00 9.4° 1024.9 hPa 3.3 m/s 81.3 mm 9.5° 1024.3 hPa 3.5 m/s 8.9° 1031.9 hPa 1.6 m/s 81.3 mm
17:00 8.8° 1024.1 hPa 3.2 m/s 81.5 mm 8.8° 1023.4 hPa 3.5 m/s 8.7° 1031.5 hPa 1.0 m/s 81.5 mm
20:00 8.0° 1023.3 hPa 3.3 m/s 81.6 mm 8.1° 1022.5 hPa 3.4 m/s 7.0° 1031.8 hPa 2.3 m/s 81.6 mm
23:00 7.6° 1022.1 hPa 3.8 m/s 81.6 mm 7.7° 1021.2 hPa 3.9 m/s 6.4° 1032.3 hPa 2.8 m/s 81.6 mm
 07:12     19:39    Daglengte: 12:27 Vrijdag 20 Sep
02:00 7.2° 1020.8 hPa 4.2 m/s 81.6 mm 7.3° 1019.9 hPa 4.4 m/s 6.4° 1031.2 hPa 2.5 m/s 81.6 mm
05:00 8.2° 1019.2 hPa 4.7 m/s 81.6 mm 8.3° 1018.2 hPa 4.8 m/s 7.1° 1030.2 hPa 2.7 m/s 81.6 mm
08:00 9.3° 1017.5 hPa 5.1 m/s 81.6 mm 9.4° 1016.5 hPa 5.3 m/s 7.7° 1029.0 hPa 3.1 m/s 81.6 mm
11:00 10.2° 1017.4 hPa 5.8 m/s 81.7 mm 10.4° 1016.5 hPa 6.0 m/s 8.1° 1028.0 hPa 3.0 m/s 81.7 mm
14:00 11.2° 1017.3 hPa 6.5 m/s 81.8 mm 11.3° 1016.4 hPa 6.8 m/s 9.9° 1027.2 hPa 3.1 m/s 81.8 mm
17:00 11.2° 1016.9 hPa 6.2 m/s 81.8 mm 11.2° 1016.0 hPa 6.5 m/s 11.4° 1026.0 hPa 3.0 m/s 81.8 mm
20:00 11.0° 1016.5 hPa 6.1 m/s 81.8 mm 11.1° 1015.7 hPa 6.2 m/s 10.1° 1025.6 hPa 4.6 m/s 81.8 mm
23:00 10.7° 1016.6 hPa 4.7 m/s 81.8 mm 10.6° 1015.9 hPa 4.7 m/s 10.8° 1025.2 hPa 4.2 m/s 81.8 mm
 07:14     19:36    Daglengte: 12:22 Zaterdag 21 Sep
02:00 10.2° 1016.7 hPa 3.2 m/s 81.8 mm 10.2° 1016.0 hPa 3.2 m/s 10.8° 1024.7 hPa 3.8 m/s 81.8 mm
05:00 9.5° 1016.2 hPa 3.1 m/s 81.8 mm 9.4° 1015.5 hPa 3.1 m/s 9.7° 1024.2 hPa 2.8 m/s 81.8 mm
08:00 8.8° 1015.6 hPa 2.9 m/s 81.8 mm 8.7° 1014.9 hPa 3.0 m/s 9.8° 1023.7 hPa 2.1 m/s 81.8 mm
11:00 12.9° 1014.3 hPa 2.5 m/s 81.8 mm 13.0° 1013.5 hPa 2.6 m/s 12.1° 1023.7 hPa 0.9 m/s 81.8 mm
14:00 17.0° 1013.0 hPa 2.2 m/s 81.8 mm 17.3° 1012.1 hPa 2.3 m/s 14.1° 1022.7 hPa 0.7 m/s 81.8 mm
17:00 15.3° 1012.7 hPa 2.1 m/s 81.8 mm 15.4° 1011.8 hPa 2.2 m/s 14.2° 1022.3 hPa 1.1 m/s 81.8 mm
20:00 13.4° 1012.4 hPa 2.0 m/s 81.8 mm 13.6° 1011.5 hPa 2.1 m/s 11.8° 1022.0 hPa 1.2 m/s 81.8 mm
23:00 11.1° 1012.2 hPa 2.0 m/s 81.8 mm 11.1° 1011.3 hPa 2.2 m/s 11.2° 1021.8 hPa 0.5 m/s 81.8 mm
 07:17     19:32    Daglengte: 12:15 Zondag 22 Sep
02:00 8.7° 1012.0 hPa 2.1 m/s 81.8 mm 8.5° 1011.1 hPa 2.2 m/s 10.8° 1021.6 hPa 0.8 m/s 81.8 mm
05:00 8.5° 1011.2 hPa 2.1 m/s 81.8 mm 8.3° 1010.2 hPa 2.2 m/s 10.4° 1021.2 hPa 0.4 m/s 81.8 mm
08:00 8.4° 1010.3 hPa 2.2 m/s 81.8 mm 8.2° 1009.4 hPa 2.3 m/s 10.3° 1020.1 hPa 1.0 m/s 81.8 mm
11:00 12.1° 1009.4 hPa 2.2 m/s 81.8 mm 11.9° 1008.5 hPa 2.3 m/s 13.8° 1019.4 hPa 0.3 m/s 81.8 mm
14:00 15.6° 1008.4 hPa 2.3 m/s 81.8 mm 15.6° 1007.5 hPa 2.4 m/s 15.3° 1018.6 hPa 1.1 m/s 81.8 mm
17:00 14.6° 1008.1 hPa 2.1 m/s 81.8 mm 14.6° 1007.2 hPa 2.1 m/s 14.6° 1017.6 hPa 1.4 m/s 81.8 mm
20:00 13.5° 1007.8 hPa 1.8 m/s 81.8 mm 13.6° 1007.0 hPa 1.9 m/s 12.0° 1017.0 hPa 1.2 m/s 81.8 mm
 07:20     19:29    Daglengte: 12:09 Maandag 23 Sep
02:00 9.8° 1007.1 hPa 2.4 m/s 81.8 mm 9.7° 1006.3 hPa 2.5 m/s 11.1° 1015.4 hPa 0.7 m/s 81.8 mm
08:00 9.7° 1008.2 hPa 2.4 m/s 81.8 mm 9.6° 1007.8 hPa 2.5 m/s 10.8° 1012.5 hPa 1.1 m/s 81.8 mm
14:00 15.7° 1009.5 hPa 2.1 m/s 81.8 mm 15.7° 1009.5 hPa 2.2 m/s 16.0° 1009.6 hPa 0.6 m/s 81.8 mm
20:00 12.3° 1001.9 hPa 4.9 m/s 81.9 mm 12.3° 1001.3 hPa 5.3 m/s 12.6° 1008.8 hPa 1.0 m/s 81.9 mm
 07:22     19:25    Daglengte: 12:03 Dinsdag 24 Sep
02:00 10.2° 1008.8 hPa 2.0 m/s 82.4 mm 10.1° 1008.6 hPa 2.0 m/s 11.6° 1011.2 hPa 2.6 m/s 82.4 mm
08:00 9.3° 1007.8 hPa 2.5 m/s 82.4 mm 9.1° 1007.2 hPa 2.5 m/s 11.3° 1014.3 hPa 2.8 m/s 82.4 mm
14:00 14.3° 1007.0 hPa 2.7 m/s 82.5 mm 14.3° 1006.3 hPa 2.8 m/s 14.1° 1015.1 hPa 1.6 m/s 82.5 mm
20:00 11.5° 1001.4 hPa 4.3 m/s 82.5 mm 11.5° 1000.3 hPa 4.4 m/s 11.0° 1013.3 hPa 3.2 m/s 82.5 mm
 07:25     19:22    Daglengte: 11:57 Woensdag 25 Sep
02:00 10.2° 1010.4 hPa 2.4 m/s 82.5 mm